Location: ????
(33.1659°N, 35.6604°E)
Time: 11:34:48
(UTC+00:00)

In-Cosmos 22 - Pass Details

Date: 20 September 2019
Orbit: 785 x 877 km, 81.2° (Epoch: 15 October)

Event Time Altitude Azimuth Distance (km) Brightness Sun altitude
Rises 17:27:23 0° 351° (N) 3,314 7.6 -23.5°
Reaches altitude 10° 17:29:45 10° 352° (N) 2,391 6.9 -23.9°
Maximum altitude 17:35:09 89° 268° (W) 825 4.0 -25.0°
Enters shadow 17:36:47 48° 174° (S) 1,069 4.5 -25.3°
